This is the latest recevied weather packets stored in our database for station/object IV3IYL-13. If no packets are shown the sender has not sent any weather packets the latest 10 day(s).
| Time | Temp. | Humidity | Pressure | Rain* | Wind** | Luminosity | Snow |
|---|---|---|---|---|---|---|---|
| 1777508457 | 12.22° C | 69% | 1022.5 hPa | - | - | - | - |
| 1777506657 | 12.22° C | 72% | 1022.3 hPa | - | - | - | - |
| 1777502457 | 13.89° C | 63% | 1021.8 hPa | - | - | - | - |
| 1777500057 | 13.89° C | 64% | 1021.3 hPa | - | - | - | - |
| 1777498857 | 14.44° C | 66% | 1021 hPa | - | - | - | - |
| 1777495857 | 14.44° C | 66% | 1020.7 hPa | - | - | - | - |
| 1777495257 | 14.44° C | 70% | 1020.4 hPa | - | - | - | - |
| 1777494057 | 14.44° C | 67% | 1020 hPa | - | - | - | - |
| 1777492872 | 14.44° C | 67% | 1019.9 hPa | - | - | - | - |
| 1777485656 | 15° C | 77% | 1018.6 hPa | - | - | - | - |
| 1777483856 | 15° C | 76% | 1018.3 hPa | - | - | - | - |
| 1777479056 | 15° C | 71% | 1018 hPa | - | - | - | - |
| 1777478471 | 15.56° C | 74% | 1018 hPa | - | - | - | - |
| 1777473056 | 16.11° C | 82% | 1018.2 hPa | - | - | - | - |
| 1777471856 | 16.11° C | 81% | 1018.1 hPa | - | - | - | - |
| 1777469455 | 16.11° C | 83% | 1018.2 hPa | - | - | - | - |
| 1777467655 | 17.22° C | 77% | 1018.2 hPa | - | - | - | - |
| 1777465255 | 17.22° C | 84% | 1018 hPa | - | - | - | - |
| 1777461655 | 17.78° C | 80% | 1018.1 hPa | - | - | - | - |
| 1777461055 | 17.78° C | 79% | 1018.2 hPa | - | - | - | - |
| 1777460455 | 17.22° C | 78% | 1018.1 hPa | - | - | - | - |
| 1777458055 | 16.67° C | 81% | 1018.2 hPa | - | - | - | - |
| 1777456855 | 16.67° C | 82% | 1018.1 hPa | - | - | - | - |
| 1777456255 | 16.67° C | 85% | 1018.1 hPa | - | - | - | - |
| 1777455655 | 16.67° C | 83% | 1018.1 hPa | - | - | - | - |
* Rain since midnight (hover to see other rain measurements)
** Current wind speed in m/s (hover to see current wind gust speed)